GW0888 Weather Reports


time (UTC)temp
F
wind
direction
speed
knots
gust
knots
rain 1hr
in
rain 24hr
in
rain mn
in
humidity
%
barometer
mb
20260503021602 48 331 0.0 6.1 0.00 0.00 0.00 54 1018.1
20260503020058 49 5 0.0 0.9 0.00 0.00 0.00 53 1017.7
20260503014550 49 297 0.0 1.7 0.00 0.00 0.00 53 1017.7
20260503013047 49 41 0.0 1.7 0.00 0.00 0.00 50 1017.4
20260503011550 50 295 0.0 3.5 0.00 0.00 0.00 49 1017.2
20260503010042 51 158 0.9 2.6 0.00 0.00 0.00 49 1017.0
20260503004535 51 348 0.9 3.5 0.00 0.00 0.00 47 1016.8
20260503003032 52 296 0.0 1.7 0.00 0.00 0.00 47 1016.7
20260503001528 53 52 0.9 2.6 0.00 0.00 0.00 46 1016.4
20260503000041 53 300 0.0 3.5 0.00 0.00 0.00 45 1016.3
20260502234602 54 13 0.9 5.2 0.00 0.00 0.00 43 1016.2
20260502233049 55 28 0.9 7.0 0.00 0.00 0.00 44 1016.1
20260502231547 55 316 3.5 8.7 0.00 0.00 0.00 42 1016.0
20260502230043 55 288 1.7 7.0 0.00 0.00 0.00 42 1016.0
20260502224540 56 330 0.9 9.6 0.00 0.00 0.00 42 1015.8
20260502223037 57 291 3.5 13.9 0.00 0.00 0.00 40 1015.7
20260502221533 57 275 4.3 10.4 0.00 0.00 0.00 41 1015.7
20260502220033 58 305 4.3 12.2 0.00 0.00 0.00 40 1015.5
20260502214533 58 285 6.1 13.0 0.00 0.00 0.00 37 1015.4
20260502213038 58 266 2.6 10.4 0.00 0.00 0.00 42 1015.3
20260502211533 58 311 1.7 13.9 0.00 0.00 0.00 40 1015.4
20260502210027 58 288 2.6 10.4 0.00 0.00 0.00 39 1015.4
20260502204524 58 275 5.2 11.3 0.00 0.00 0.00 40 1015.4
20260502203021 58 328 7.0 11.3 0.00 0.00 0.00 40 1015.5
20260502201512 60 290 6.1 13.0 0.00 0.00 0.00 38 1015.6
20260502200009 57 248 5.2 11.3 0.00 0.00 0.00 41 1015.7
20260502194506 57 336 5.2 9.6 0.00 0.00 0.00 42 1015.8
20260502193005 56 33 1.7 6.1 0.00 0.00 0.00 43 1015.8
20260502191502 57 336 1.7 7.0 0.00 0.00 0.00 41 1015.9
20260502190002 58 328 2.6 9.6 0.00 0.00 0.00 40 1016.2
20260502184502 61 310 5.2 11.3 0.00 0.00 0.00 39 1016.1
20260502183101 58 267 5.2 9.6 0.00 0.00 0.00 44 1016.3
20260502181600 57 312 7.8 13.9 0.00 0.00 0.00 41 1016.4
20260502163055 60 236 4.3 13.0 0.00 0.00 0.00 39 1016.7
20260502161545 59 271 1.7 8.7 0.00 0.00 0.00 43 1016.9
20260502151557 56 231 0.9 7.8 0.00 0.00 0.00 48 1017.3
20260502140128 52 291 0.0 3.5 0.00 0.00 0.00 62 1017.4
20260502123040 40 197 0.0 1.7 0.00 0.00 0.00 91 1017.5
20260502121539 40 275 0.0 2.6 0.00 0.00 0.00 91 1017.6
20260502114535 39 255 0.0 1.7 0.00 0.00 0.00 91 1017.4
20260502113005 38 255 0.0 1.7 0.00 0.00 0.00 91 1017.3
20260502111505 38 255 0.0 0.9 0.00 0.00 0.00 91 1017.3
20260502110002 38 261 0.0 1.7 0.00 0.00 0.00 91 1017.0
20260502104501 37 261 0.0 1.7 0.00 0.00 0.00 90 1017.0
20260502103108 37 261 0.0 0.0 0.00 0.00 0.00 90 1016.9
20260502101619 37 261 0.0 0.9 0.00 0.00 0.00 90 1017.1
20260502100104 38 261 0.0 1.7 0.00 0.00 0.00 90 1017.3
20260502090113 38 261 0.0 0.9 0.00 0.00 0.00 89 1017.3
20260502070055 39 300 0.0 0.0 0.00 0.00 0.00 87 1016.9
20260502064548 39 300 0.0 0.9 0.00 0.00 0.00 88 1017.0
20260502063047 40 300 0.0 0.9 0.00 0.00 0.00 87 1017.0
20260502061534 40 300 0.0 0.9 0.00 0.00 0.00 87 1017.2
20260502060029 40 300 0.0 0.9 0.00 0.00 0.00 86 1017.4
20260502054534 41 300 0.0 0.9 0.00 0.00 0.00 85 1017.3
20260502053027 41 300 0.0 1.7 0.00 0.00 0.00 85 1017.5
20260502051524 42 300 0.0 0.9 0.00 0.00 0.00 84 1017.4
20260502050032 42 300 0.0 0.0 0.00 0.00 0.00 83 1017.5
20260502044517 43 300 0.0 0.0 0.00 0.00 0.00 82 1017.4
20260502043016 43 300 0.0 0.0 0.00 0.00 0.00 81 1017.6
20260502041513 44 300 0.0 0.9 0.00 0.00 0.00 80 1017.7
20260502040007 45 300 0.0 0.9 0.00 0.00 0.00 78 1017.7
20260502034511 46 300 0.0 0.9 0.00 0.00 0.00 76 1017.6
20260502033002 47 300 0.0 0.0 0.00 0.00 0.00 73 1017.4
20260502031603 47 300 0.0 0.0 0.00 0.00 0.00 73 1017.3
20260502030057 48 300 0.0 0.0 0.00 0.00 0.00 72 1017.5
20260502024606 49 300 0.0 0.0 0.00 0.00 0.00 69 1017.5
20260502023106 49 300 0.0 0.0 0.00 0.00 0.00 68 1017.7